Погода в Мытищах

Россия / Московская область     55°54′37″N   37°44′10″E
темп.,
°C
ветер,
м/с
пор.,
м/с
влажн.,
%
обл.,
%
осадки,
мм/ч
давл.,
гПа
погр.,
м
18 апреля, вс
вс1800:00+8всв6146142 0.0 1021518
03:00+6всв5136861 0.0 1021493
06:00+5всв5147265 0.0 1021554
09:00+8в6105671 0.0 1021836
12:00+11в6848100 0.0 10211551
15:00+10вюв51057100 0.1 10221510
18:00+8вюв51072100 0.1 10221042
21:00+8в5127498 0.1 10231116
19 апреля, пн
пн1900:00+7св4878100 0.0 1023640
03:00+6всв51084100 0.1 1024641
06:00+5всв51086100 0.0 1024623
09:00+4всв51086100 0.8 1025670
12:00+8всв6862100 0.0 10241146
15:00+7в6969100 0.1 10251078
18:00+4всв51192100 0.8 1026871
21:00+4в5116698 0.9 10251155
20 апреля, вт
вт2000:00+3в5116798 0.0 1025858
03:00+2всв51182100 0.1 1024683
06:00+1в51396100 1.4 1023560
09:00+2в51295100 1.8 1023595
12:00+5в61289100 0.1 1022692
15:00+6в61180100 0.1 1020899
18:00+4в61291100 0.3 1019904
21:00+6в71579100 1.1 10151211
21 апреля, ср
ср2100:00+5в81783100 1.9 10111145
03:00+2в81896100 7.2 1007990
06:00+3в71695100 3.3 1004990
09:00+5вюв81593100 3.7 1003893
12:00+6вюв71594100 1.8 10011057
15:00+5ююв71386100 3.8 10021131
18:00+4ю71483100 0.1 10041366
21:00+3ююз81493100 0.3 10071266
22 апреля, чт
чт2200:00+3ююз71296100 0.2 10101067
03:00+3ююз51097100 0.4 10131071
06:00+3ююз41097100 0.4 1015811
09:00+6юз4885100 0.4 1018840
12:00+10ююз476290 0.0 10191191
15:00+12юз465266 0.3 10191737
18:00+11ююз226286 0.1 102151
21:00+7ююз12745 0.1 102211